This is the latest recevied weather packets stored in our database for station/object G4KVI. If no packets are shown the sender has not sent any weather packets the latest 10 day(s).
| Time | Temp. | Humidity | Pressure | Rain* | Wind** | Luminosity | Snow |
|---|---|---|---|---|---|---|---|
| 1777233603 | 11.67° C | 59% | 1025.9 hPa | 0 mm | - | 0 W/m² | - |
| 1777233303 | 12.22° C | 59% | 1025.7 hPa | 0 mm | - | 0 W/m² | - |
| 1777233003 | 12.22° C | 58% | 1025.7 hPa | 0 mm | - | 0 W/m² | - |
| 1777232703 | 12.22° C | 58% | 1025.9 hPa | 0 mm | - | 0 W/m² | - |
| 1777232403 | 12.22° C | 58% | 1025.9 hPa | 0 mm | - | 0 W/m² | - |
| 1777232103 | 12.78° C | 58% | 1025.8 hPa | 0 mm | - | 0 W/m² | - |
| 1777231803 | 12.78° C | 57% | 1025.7 hPa | 0 mm | - | 1 W/m² | - |
| 1777231503 | 13.33° C | 56% | 1025.8 hPa | 0 mm | - | 2 W/m² | - |
| 1777231203 | 13.33° C | 55% | 1025.5 hPa | 0 mm | - | 3 W/m² | - |
| 1777230903 | 13.89° C | 52% | 1025.6 hPa | 0 mm | - | 5 W/m² | - |
| 1777230603 | 14.44° C | 50% | 1025.4 hPa | 0 mm | - | 8 W/m² | - |
| 1777230324 | 14.44° C | 48% | 1025.4 hPa | 0 mm | - | 10 W/m² | - |
| 1777230003 | 15° C | 47% | 1025.5 hPa | 0 mm | - | 13 W/m² | - |
| 1777229703 | 15.56° C | 45% | 1025.7 hPa | 0 mm | - | 17 W/m² | - |
| 1777229403 | 15.56° C | 43% | 1025.6 hPa | 0 mm | - | 21 W/m² | - |
| 1777229104 | 16.11° C | 41% | 1025.7 hPa | 0 mm | - | 25 W/m² | - |
| 1777228804 | 16.11° C | 41% | 1025.5 hPa | 0 mm | - | 29 W/m² | - |
| 1777228504 | 16.11° C | 39% | 1025.5 hPa | 0 mm | - | 33 W/m² | - |
| 1777228204 | 16.67° C | 38% | 1025.3 hPa | 0 mm | - | 37 W/m² | - |
| 1777227904 | 17.22° C | 37% | 1025.4 hPa | 0 mm | - | 42 W/m² | - |
| 1777227604 | 17.22° C | 36% | 1025.3 hPa | 0 mm | - | 51 W/m² | - |
| 1777227304 | 17.78° C | 36% | 1025.5 hPa | 0 mm | - | 60 W/m² | - |
| 1777227004 | 17.22° C | 36% | 1025.6 hPa | 0 mm | - | 72 W/m² | - |
| 1777226704 | 17.78° C | 36% | 1025.6 hPa | 0 mm | - | 79 W/m² | - |
| 1777226404 | 17.78° C | 34% | 1025.5 hPa | 0 mm | - | 88 W/m² | - |
* Rain latest hour (hover to see other rain measurements)
** Current wind speed in m/s (hover to see current wind gust speed)